sat.trackr.live / text

‹ back to catalog

STARLINK-5936

NORAD 56011 · 2023-042AB

PAYLOAD ACTIVE UNKNOWN

§ Identity

Operator
Country
US
Launch date
2023-03-24
Launch site
AFETR
Launch vehicle
Mass (kg)
RCS (m²)

Purposes: comms

External: N2YO · Heavens-Above · Gunter

§ Orbital elements

Epoch: 2026-05-24T17:05:52.763136Z

Period
94.26 min
Inclination
43.0058°
Eccentricity
0.0002363
Mean motion
15.27620956 rev/d
Perigee alt
481.3 km
Apogee alt
484.5 km
Semi-major
6,861.1 km
B*
2.2552e-4
RAAN
335.7713°
Arg perigee
240.6231°
Mean anomaly
119.4385°
Rev number
17,466

§ Raw data

STARLINK-59361 56011U 23042AB  26144.71241624  .00005956  00000+0  22552-3 0  99912 56011  43.0058 335.7713 0002363 240.6231 119.4385 15.27620956174664

JSON: /api/v1/satellites/56011 · /tle

For live sub-satellite position, see the globe view (requires WebGL).

§ Visibility from observer

Set your observer location to see the next 7 days of passes ≥ 10°. The values pass through the URL so the page stays shareable.

No JS? Fill the form by hand. The geolocation button needs JavaScript.